Location: Unspecified
(64.9000°N, 0.0000°E)
Time: 03:12:39
(UTC+00:00)

A-11 Canister half - Pass Details

Date: 22 June 2019
Orbit: 1526 x 1683 km, 47.3° (Epoch: 21 July)

Event Time Altitude Azimuth Distance (km) Brightness Sun altitude
Rises 06:54:12 0° 237° (WSW) 4,708 11.1 26.6°
Reaches altitude 10° 06:57:53 10° 226° (SW) 3,711 10.7 27.0°
Maximum altitude 07:05:03 26° 175° (S) 2,659 10.6 27.8°
Drops below altitude 10° 07:12:11 10° 124° (SE) 3,698 12.1 28.5°
Sets 07:15:51 0° 113° (ESE) 4,689 12.6 28.9°
